User: anonymous   Login
Location: Koussan�
(15.2012°N, 12.5548°W)
Time: 11:20:28
(UTC+00:00)
Language:

Aureole 3 Rocket - Orbit

View from above orbital plane
View from above orbital plane
View from above satellite
View from above satellite

Ground track
Ground track

The orbit data is extracted from the following two-line orbital elements,

1 12849U 81094B   21018.86225799  .00000261  00000-0  19758-4 0  9999
2 12849  82.4905 239.6455 0901632 126.4183 242.3589 13.50778611918981
Epoch (UTC): 18 January 2021 20:41:39
Eccentricity: 0.0901632
inclination: 82.4905°
perigee height: 398 km
apogee height: 1741 km
right ascension of ascending node: 239.6455°
argument of perigee: 126.4183°
revolutions per day: 13.50778611
mean anomaly at epoch: 242.3589°
orbit number at epoch: 91898

The dashed part of the orbit path shows where the satellite is in the earth's shadow,  

DLR